Torna al catalogo

COSMOS 1275 DEB

AttivoPO
NORAD 12700·DEBRIS·🇷🇺 Russia

Lanciato Jun 4, 1981 da Plesetsk Cosmodrome

Loading…

Prossimi Passaggi (prossime 24 ore)

TLE

AggiornatoSource: Space-Track

Epoca: Sep 13, 2026, 23:46 UTC

1 12700U 81053AU  26256.99033015  .00000910  00000-0  49256-3 0  9997
2 12700  82.7804 156.7044 0046574 225.1631 134.5757 14.11036747299695

Traccia COSMOS 1275 DEB in tempo reale con AllMySat

Download on the App Store